Year,Month,Day,Hour,Minute,Value (Times are PST for temperature in C)
2017,04,28,00,00,4.40
2017,04,28,00,01,4.40
2017,04,28,00,02,4.40
2017,04,28,00,03,4.50
2017,04,28,00,04,4.50
2017,04,28,00,05,4.50
2017,04,28,00,06,4.50
2017,04,28,00,07,4.50
2017,04,28,00,08,4.40
2017,04,28,00,09,4.40
2017,04,28,00,10,4.40
2017,04,28,00,11,4.40
2017,04,28,00,12,4.40
2017,04,28,00,13,4.40
2017,04,28,00,14,4.30
2017,04,28,00,15,4.30
2017,04,28,00,16,4.30
2017,04,28,00,17,4.20
2017,04,28,00,18,4.20
2017,04,28,00,19,4.20
2017,04,28,00,20,4.10
2017,04,28,00,21,4.10
2017,04,28,00,22,4.00
2017,04,28,00,23,4.00
2017,04,28,00,24,4.00
2017,04,28,00,25,3.90
2017,04,28,00,26,3.90
2017,04,28,00,27,3.90
2017,04,28,00,28,3.90
2017,04,28,00,29,3.90
2017,04,28,00,30,3.80
2017,04,28,00,31,3.80
2017,04,28,00,32,3.80
2017,04,28,00,33,3.80
2017,04,28,00,34,3.80
2017,04,28,00,35,3.70
2017,04,28,00,36,3.70
2017,04,28,00,37,3.70
2017,04,28,00,38,3.70
2017,04,28,00,39,3.70
2017,04,28,00,40,3.70
2017,04,28,00,41,3.70
2017,04,28,00,42,3.70
2017,04,28,00,43,3.70
2017,04,28,00,44,3.60
2017,04,28,00,45,3.60
2017,04,28,00,46,3.60
2017,04,28,00,47,3.60
2017,04,28,00,48,3.60
2017,04,28,00,49,3.60
2017,04,28,00,50,3.60
2017,04,28,00,51,3.60
2017,04,28,00,52,3.50
2017,04,28,00,53,3.50
2017,04,28,00,54,3.50
2017,04,28,00,55,3.50
2017,04,28,00,56,3.50
2017,04,28,00,57,3.50
2017,04,28,00,58,3.50
2017,04,28,00,59,3.50
2017,04,28,01,00,3.50
2017,04,28,01,01,3.50
2017,04,28,01,02,3.50
2017,04,28,01,03,3.50
2017,04,28,01,04,3.50
2017,04,28,01,05,3.50
2017,04,28,01,06,3.50
2017,04,28,01,07,3.50
2017,04,28,01,08,3.50
2017,04,28,01,09,3.50
2017,04,28,01,10,3.50
2017,04,28,01,11,3.50
2017,04,28,01,12,3.50
2017,04,28,01,13,3.50
2017,04,28,01,14,3.50
2017,04,28,01,15,3.50
2017,04,28,01,16,3.50
2017,04,28,01,17,3.50
2017,04,28,01,18,3.60
2017,04,28,01,19,3.60
2017,04,28,01,20,3.60
2017,04,28,01,21,3.60
2017,04,28,01,22,3.60
2017,04,28,01,23,3.60
2017,04,28,01,24,3.60
2017,04,28,01,25,3.60
2017,04,28,01,26,3.60
2017,04,28,01,27,3.70
2017,04,28,01,28,3.60
2017,04,28,01,29,3.60
2017,04,28,01,30,3.60
2017,04,28,01,31,3.60
2017,04,28,01,32,3.60
2017,04,28,01,33,3.50
2017,04,28,01,34,3.50
2017,04,28,01,35,3.50
2017,04,28,01,36,3.40
2017,04,28,01,37,3.40
2017,04,28,01,38,3.40
2017,04,28,01,39,3.30
2017,04,28,01,40,3.30
2017,04,28,01,41,3.30
2017,04,28,01,42,3.30
2017,04,28,01,43,3.30
2017,04,28,01,44,3.30
2017,04,28,01,45,3.20
2017,04,28,01,46,3.20
2017,04,28,01,47,3.20
2017,04,28,01,48,3.20
2017,04,28,01,49,3.20
2017,04,28,01,50,3.20
2017,04,28,01,51,3.20
2017,04,28,01,52,3.20
2017,04,28,01,53,3.20
2017,04,28,01,54,3.20
2017,04,28,01,55,3.20
2017,04,28,01,56,3.20
2017,04,28,01,57,3.20
2017,04,28,01,58,3.20
2017,04,28,01,59,3.20
2017,04,28,02,00,3.20
2017,04,28,02,01,3.20
2017,04,28,02,02,3.20
2017,04,28,02,03,3.20
2017,04,28,02,04,3.20
2017,04,28,02,05,3.20
2017,04,28,02,06,3.20
2017,04,28,02,07,3.20
2017,04,28,02,08,3.20
2017,04,28,02,09,3.20
2017,04,28,02,10,3.20
2017,04,28,02,11,3.20
2017,04,28,02,12,3.20
2017,04,28,02,13,3.20
2017,04,28,02,14,3.20
2017,04,28,02,15,3.20
2017,04,28,02,16,3.20
2017,04,28,02,17,3.20
2017,04,28,02,18,3.10
2017,04,28,02,19,3.10
2017,04,28,02,20,3.10
2017,04,28,02,21,3.10
2017,04,28,02,22,3.10
2017,04,28,02,23,3.10
2017,04,28,02,24,3.10
2017,04,28,02,25,3.10
2017,04,28,02,26,3.20
2017,04,28,02,27,3.10
2017,04,28,02,28,3.10
2017,04,28,02,29,3.10
2017,04,28,02,30,3.10
2017,04,28,02,31,3.10
2017,04,28,02,32,3.10
2017,04,28,02,33,3.10
2017,04,28,02,34,3.10
2017,04,28,02,35,3.20
2017,04,28,02,36,3.20
2017,04,28,02,37,3.20
2017,04,28,02,38,3.20
2017,04,28,02,39,3.20
2017,04,28,02,40,3.20
2017,04,28,02,41,3.20
2017,04,28,02,42,3.20
2017,04,28,02,43,3.20
2017,04,28,02,44,3.20
2017,04,28,02,45,3.10
2017,04,28,02,46,3.10
2017,04,28,02,47,3.10
2017,04,28,02,48,3.10
2017,04,28,02,49,3.10
2017,04,28,02,50,3.10
2017,04,28,02,51,3.10
2017,04,28,02,52,3.10
2017,04,28,02,53,3.10
2017,04,28,02,54,3.10
2017,04,28,02,55,3.10
2017,04,28,02,56,3.10
2017,04,28,02,57,3.10
2017,04,28,02,58,3.00
2017,04,28,02,59,3.00
2017,04,28,03,00,3.00
2017,04,28,03,01,3.00
2017,04,28,03,02,3.00
2017,04,28,03,03,3.00
2017,04,28,03,04,2.90
2017,04,28,03,05,2.90
2017,04,28,03,06,2.90
2017,04,28,03,07,2.90
2017,04,28,03,08,2.90
2017,04,28,03,09,2.90
2017,04,28,03,10,2.90
2017,04,28,03,11,2.80
2017,04,28,03,12,2.80
2017,04,28,03,13,2.80
2017,04,28,03,14,2.80
2017,04,28,03,15,2.80
2017,04,28,03,16,2.80
2017,04,28,03,17,2.80
2017,04,28,03,18,2.80
2017,04,28,03,19,2.80
2017,04,28,03,20,2.80
2017,04,28,03,21,2.80
2017,04,28,03,22,2.80
2017,04,28,03,23,2.80
2017,04,28,03,24,2.80
2017,04,28,03,25,2.80
2017,04,28,03,26,2.80
2017,04,28,03,27,2.80
2017,04,28,03,28,2.80
2017,04,28,03,29,2.80
2017,04,28,03,30,2.80
2017,04,28,03,31,2.70
2017,04,28,03,32,2.70
2017,04,28,03,33,2.70
2017,04,28,03,34,2.70
2017,04,28,03,35,2.70
2017,04,28,03,36,2.70
2017,04,28,03,37,2.70
2017,04,28,03,38,2.70
2017,04,28,03,39,2.70
2017,04,28,03,40,2.70
2017,04,28,03,41,2.70
2017,04,28,03,42,2.70
2017,04,28,03,43,2.70
2017,04,28,03,44,2.70
2017,04,28,03,45,2.70
2017,04,28,03,46,2.70
2017,04,28,03,47,2.70
2017,04,28,03,48,2.70
2017,04,28,03,49,2.70
2017,04,28,03,50,2.70
2017,04,28,03,51,2.70
2017,04,28,03,52,2.70
2017,04,28,03,53,2.70
2017,04,28,03,54,2.70
2017,04,28,03,55,2.70
2017,04,28,03,56,2.60
2017,04,28,03,57,2.60
2017,04,28,03,58,2.60
2017,04,28,03,59,2.60
2017,04,28,04,00,2.50
2017,04,28,04,01,2.40
2017,04,28,04,02,2.40
2017,04,28,04,03,2.40
2017,04,28,04,04,2.40
2017,04,28,04,05,2.40
2017,04,28,04,06,2.30
2017,04,28,04,07,2.30
2017,04,28,04,08,2.30
2017,04,28,04,09,2.30
2017,04,28,04,10,2.30
2017,04,28,04,11,2.30
2017,04,28,04,12,2.30
2017,04,28,04,13,2.30
2017,04,28,04,14,2.30
2017,04,28,04,15,2.40
2017,04,28,04,16,2.40
2017,04,28,04,17,2.40
2017,04,28,04,18,2.30
2017,04,28,04,19,2.30
2017,04,28,04,20,2.30
2017,04,28,04,21,2.30
2017,04,28,04,22,2.30
2017,04,28,04,23,2.30
2017,04,28,04,24,2.30
2017,04,28,04,25,2.20
2017,04,28,04,26,2.20
2017,04,28,04,27,2.20
2017,04,28,04,28,2.20
2017,04,28,04,29,2.20
2017,04,28,04,30,2.20
2017,04,28,04,31,2.20
2017,04,28,04,32,2.20
2017,04,28,04,33,2.20
2017,04,28,04,34,2.20
2017,04,28,04,35,2.20
2017,04,28,04,36,2.20
2017,04,28,04,37,2.20
2017,04,28,04,38,2.20
2017,04,28,04,39,2.20
2017,04,28,04,40,2.20
2017,04,28,04,41,2.20
2017,04,28,04,42,2.20
2017,04,28,04,43,2.20
2017,04,28,04,44,2.20
2017,04,28,04,45,2.30
2017,04,28,04,46,2.30
2017,04,28,04,47,2.30
2017,04,28,04,48,2.30
2017,04,28,04,49,2.30
2017,04,28,04,50,2.30
2017,04,28,04,51,2.30
2017,04,28,04,52,2.30
2017,04,28,04,53,2.30
2017,04,28,04,54,2.30
2017,04,28,04,55,2.30
2017,04,28,04,56,2.30
2017,04,28,04,57,2.30
2017,04,28,04,58,2.30
2017,04,28,04,59,2.30
2017,04,28,05,00,2.20
2017,04,28,05,01,2.20
2017,04,28,05,02,2.20
2017,04,28,05,03,2.10
2017,04,28,05,04,2.10
2017,04,28,05,05,2.10
2017,04,28,05,06,2.00
2017,04,28,05,07,2.00
2017,04,28,05,08,2.00
2017,04,28,05,09,2.00
2017,04,28,05,10,2.00
2017,04,28,05,11,2.00
2017,04,28,05,12,2.00
2017,04,28,05,13,2.00
2017,04,28,05,14,2.00
2017,04,28,05,15,2.00
2017,04,28,05,16,2.00
2017,04,28,05,17,2.00
2017,04,28,05,18,2.00
2017,04,28,05,19,2.10
2017,04,28,05,20,2.10
2017,04,28,05,21,2.10
2017,04,28,05,22,2.10
2017,04,28,05,23,2.10
2017,04,28,05,24,2.10
2017,04,28,05,25,2.10
2017,04,28,05,26,2.10
2017,04,28,05,27,2.10
2017,04,28,05,28,2.10
2017,04,28,05,29,2.10
2017,04,28,05,30,2.10
2017,04,28,05,31,2.10
2017,04,28,05,32,2.10
2017,04,28,05,33,2.10
2017,04,28,05,34,2.10
2017,04,28,05,35,2.10
2017,04,28,05,36,2.10
2017,04,28,05,37,2.10
2017,04,28,05,38,2.10
2017,04,28,05,39,2.10
2017,04,28,05,40,2.10
2017,04,28,05,41,2.10
2017,04,28,05,42,2.10
2017,04,28,05,43,2.10
2017,04,28,05,44,2.10
2017,04,28,05,45,2.00
2017,04,28,05,46,2.00
2017,04,28,05,47,2.00
2017,04,28,05,48,2.00
2017,04,28,05,49,2.00
2017,04,28,05,50,2.00
2017,04,28,05,51,2.00
2017,04,28,05,52,2.00
2017,04,28,05,53,2.00
2017,04,28,05,54,2.00
2017,04,28,05,55,2.00
2017,04,28,05,56,2.00
2017,04,28,05,57,2.00
2017,04,28,05,58,2.00
2017,04,28,05,59,2.10
2017,04,28,06,00,2.10
2017,04,28,06,01,2.00
2017,04,28,06,02,2.00
2017,04,28,06,03,2.00
2017,04,28,06,04,2.00
2017,04,28,06,05,2.00
2017,04,28,06,06,2.00
2017,04,28,06,07,1.90
2017,04,28,06,08,1.90
2017,04,28,06,09,1.90
2017,04,28,06,10,1.90
2017,04,28,06,11,1.90
2017,04,28,06,12,1.90
2017,04,28,06,13,1.90
2017,04,28,06,14,1.90
2017,04,28,06,15,1.90
2017,04,28,06,16,1.90
2017,04,28,06,17,1.90
2017,04,28,06,18,1.90
2017,04,28,06,19,1.90
2017,04,28,06,20,1.90
2017,04,28,06,21,1.90
2017,04,28,06,22,1.90
2017,04,28,06,23,1.90
2017,04,28,06,24,1.90
2017,04,28,06,25,1.90
2017,04,28,06,26,1.90
2017,04,28,06,27,1.90
2017,04,28,06,28,1.90
2017,04,28,06,29,1.90
2017,04,28,06,30,1.90
2017,04,28,06,31,1.90
2017,04,28,06,32,1.90
2017,04,28,06,33,1.90
2017,04,28,06,34,1.90
2017,04,28,06,35,1.90
2017,04,28,06,36,1.90
2017,04,28,06,37,1.90
2017,04,28,06,38,1.90
2017,04,28,06,39,1.90
2017,04,28,06,40,1.80
2017,04,28,06,41,1.80
2017,04,28,06,42,1.80
2017,04,28,06,43,1.80
2017,04,28,06,44,1.80
2017,04,28,06,45,1.80
2017,04,28,06,46,1.80
2017,04,28,06,47,1.80
2017,04,28,06,48,1.80
2017,04,28,06,49,1.80
2017,04,28,06,50,1.80
2017,04,28,06,51,1.80
2017,04,28,06,52,1.80
2017,04,28,06,53,1.80
2017,04,28,06,54,1.80
2017,04,28,06,55,1.70
2017,04,28,06,56,1.70
2017,04,28,06,57,1.70
2017,04,28,06,58,1.70
2017,04,28,06,59,1.70
2017,04,28,07,00,1.70
2017,04,28,07,01,1.80
2017,04,28,07,02,1.80
2017,04,28,07,03,1.80
2017,04,28,07,04,1.80
2017,04,28,07,05,1.80
2017,04,28,07,06,1.80
2017,04,28,07,07,1.80
2017,04,28,07,08,1.80
2017,04,28,07,09,1.80
2017,04,28,07,10,1.80
2017,04,28,07,11,1.80
2017,04,28,07,12,1.80
2017,04,28,07,13,1.80
2017,04,28,07,14,1.80
2017,04,28,07,15,1.80
2017,04,28,07,16,1.80
2017,04,28,07,17,1.80
2017,04,28,07,18,1.80
2017,04,28,07,19,1.80
2017,04,28,07,20,1.80
2017,04,28,07,21,1.80
2017,04,28,07,22,1.80
2017,04,28,07,23,1.90
2017,04,28,07,24,1.90
2017,04,28,07,25,1.90
2017,04,28,07,26,1.90
2017,04,28,07,27,1.90
2017,04,28,07,28,1.90
2017,04,28,07,29,1.90
2017,04,28,07,30,1.90
2017,04,28,07,31,1.90
2017,04,28,07,32,1.90
2017,04,28,07,33,1.90
2017,04,28,07,34,1.90
2017,04,28,07,35,1.90
2017,04,28,07,36,1.90
2017,04,28,07,37,1.90
2017,04,28,07,38,1.90
2017,04,28,07,39,1.90
2017,04,28,07,40,1.90
2017,04,28,07,41,1.90
2017,04,28,07,42,1.90
2017,04,28,07,43,1.90
2017,04,28,07,44,1.90
2017,04,28,07,45,1.90
2017,04,28,07,46,1.90
2017,04,28,07,47,1.90
2017,04,28,07,48,1.90
2017,04,28,07,49,1.90
2017,04,28,07,50,1.90
2017,04,28,07,51,1.80
2017,04,28,07,52,1.80
2017,04,28,07,53,1.80
2017,04,28,07,54,1.80
2017,04,28,07,55,1.80
2017,04,28,07,56,1.80
2017,04,28,07,57,1.80
2017,04,28,07,58,1.80
2017,04,28,07,59,1.80
2017,04,28,08,00,1.80
2017,04,28,08,01,1.80
2017,04,28,08,02,1.90
2017,04,28,08,03,1.90
2017,04,28,08,04,1.90
2017,04,28,08,05,2.00
2017,04,28,08,06,2.00
2017,04,28,08,07,2.10
2017,04,28,08,08,2.10
2017,04,28,08,09,2.10
2017,04,28,08,10,2.10
2017,04,28,08,11,2.10
2017,04,28,08,12,2.10
2017,04,28,08,13,2.20
2017,04,28,08,14,2.20
2017,04,28,08,15,2.20
2017,04,28,08,16,2.20
2017,04,28,08,17,2.20
2017,04,28,08,18,2.20
2017,04,28,08,19,2.20
2017,04,28,08,20,2.20
2017,04,28,08,21,2.20
2017,04,28,08,22,2.20
2017,04,28,08,23,2.20
2017,04,28,08,24,2.20
2017,04,28,08,25,2.20
2017,04,28,08,26,2.20
2017,04,28,08,27,2.20
2017,04,28,08,28,2.20
2017,04,28,08,29,2.20
2017,04,28,08,30,2.20
2017,04,28,08,31,2.20
2017,04,28,08,32,2.20
2017,04,28,08,33,2.20
2017,04,28,08,34,2.20
2017,04,28,08,35,2.20
2017,04,28,08,36,2.20
2017,04,28,08,37,2.20
2017,04,28,08,38,2.30
2017,04,28,08,39,2.30
2017,04,28,08,40,2.30
2017,04,28,08,41,2.30
2017,04,28,08,42,2.30
2017,04,28,08,43,2.30
2017,04,28,08,44,2.40
2017,04,28,08,45,2.40
2017,04,28,08,46,2.40
2017,04,28,08,47,2.40
2017,04,28,08,48,2.40
2017,04,28,08,49,2.40
2017,04,28,08,50,2.40
2017,04,28,08,51,2.40
2017,04,28,08,52,2.40
2017,04,28,08,53,2.40
2017,04,28,08,54,2.40
2017,04,28,08,55,2.40
2017,04,28,08,56,2.50
2017,04,28,08,57,2.50
2017,04,28,08,58,2.60
2017,04,28,08,59,2.70
2017,04,28,09,00,2.70
2017,04,28,09,01,2.80
2017,04,28,09,02,2.90
2017,04,28,09,03,2.90
2017,04,28,09,04,3.00
2017,04,28,09,05,3.10
2017,04,28,09,06,3.10
2017,04,28,09,07,3.20
2017,04,28,09,08,3.20
2017,04,28,09,09,3.30
2017,04,28,09,10,3.20
2017,04,28,09,11,3.20
2017,04,28,09,12,3.20
2017,04,28,09,13,3.20
2017,04,28,09,14,3.10
2017,04,28,09,15,3.10
2017,04,28,09,16,3.20
2017,04,28,09,17,3.20
2017,04,28,09,18,3.30
2017,04,28,09,19,3.30
2017,04,28,09,20,3.30
2017,04,28,09,21,3.30
2017,04,28,09,22,3.30
2017,04,28,09,23,3.40
2017,04,28,09,24,3.40
2017,04,28,09,25,3.30
2017,04,28,09,26,3.40
2017,04,28,09,27,3.40
2017,04,28,09,28,3.40
2017,04,28,09,29,3.40
2017,04,28,09,30,3.40
2017,04,28,09,31,3.50
2017,04,28,09,32,3.50
2017,04,28,09,33,3.60
2017,04,28,09,34,3.70
2017,04,28,09,35,3.80
2017,04,28,09,36,3.80
2017,04,28,09,37,3.80
2017,04,28,09,38,3.80
2017,04,28,09,39,3.90
2017,04,28,09,40,3.90
2017,04,28,09,41,3.90
2017,04,28,09,42,3.90
2017,04,28,09,43,3.90
2017,04,28,09,44,4.00
2017,04,28,09,45,4.00
2017,04,28,09,46,4.10
2017,04,28,09,47,4.20
2017,04,28,09,48,4.30
2017,04,28,09,49,4.40
2017,04,28,09,50,4.60
2017,04,28,09,51,4.70
2017,04,28,09,52,4.90
2017,04,28,09,53,5.00
2017,04,28,09,54,5.20
2017,04,28,09,55,5.20
2017,04,28,09,56,5.30
2017,04,28,09,57,5.40
2017,04,28,09,58,5.40
2017,04,28,09,59,5.50
2017,04,28,10,00,5.60
2017,04,28,10,01,5.60
2017,04,28,10,02,5.70
2017,04,28,10,03,5.70
2017,04,28,10,04,5.80
2017,04,28,10,05,5.80
2017,04,28,10,06,5.80
2017,04,28,10,07,5.80
2017,04,28,10,08,5.90
2017,04,28,10,09,5.90
2017,04,28,10,10,5.90
2017,04,28,10,11,6.00
2017,04,28,10,12,6.00
2017,04,28,10,13,6.00
2017,04,28,10,14,6.10
2017,04,28,10,15,6.20
2017,04,28,10,16,6.20
2017,04,28,10,17,6.30
2017,04,28,10,18,6.40
2017,04,28,10,19,6.40
2017,04,28,10,20,6.50
2017,04,28,10,21,6.70
2017,04,28,10,22,6.70
2017,04,28,10,23,6.80
2017,04,28,10,24,6.80
2017,04,28,10,25,6.90
2017,04,28,10,26,7.00
2017,04,28,10,27,7.10
2017,04,28,10,28,7.20
2017,04,28,10,29,7.30
2017,04,28,10,30,7.50
2017,04,28,10,31,7.60
2017,04,28,10,32,7.70
2017,04,28,10,33,7.70
2017,04,28,10,34,7.70
2017,04,28,10,35,7.60
2017,04,28,10,36,7.60
2017,04,28,10,37,7.70
2017,04,28,10,38,7.70
2017,04,28,10,39,7.70
2017,04,28,10,40,7.70
2017,04,28,10,41,7.80
2017,04,28,10,42,7.90
2017,04,28,10,43,7.90
2017,04,28,10,44,8.00
2017,04,28,10,45,8.10
2017,04,28,10,46,8.20
2017,04,28,10,47,8.30
2017,04,28,10,48,8.30
2017,04,28,10,49,8.40
2017,04,28,10,50,8.50
2017,04,28,10,51,8.70
2017,04,28,10,52,8.80
2017,04,28,10,53,9.00
2017,04,28,10,54,9.10
2017,04,28,10,55,9.30
2017,04,28,10,56,9.30
2017,04,28,10,57,9.40
2017,04,28,10,58,9.50
2017,04,28,10,59,9.60
2017,04,28,11,00,9.70
2017,04,28,11,01,9.70
2017,04,28,11,02,9.80
2017,04,28,11,03,9.90
2017,04,28,11,04,10.00
2017,04,28,11,05,10.00
2017,04,28,11,06,10.10
2017,04,28,11,07,10.10
2017,04,28,11,08,10.20
2017,04,28,11,09,10.20
2017,04,28,11,10,10.20
2017,04,28,11,11,10.20
2017,04,28,11,12,10.20
2017,04,28,11,13,10.20
2017,04,28,11,14,10.20
2017,04,28,11,15,10.30
2017,04,28,11,16,10.30
2017,04,28,11,17,10.30
2017,04,28,11,18,10.30
2017,04,28,11,19,10.30
2017,04,28,11,20,10.30
2017,04,28,11,21,10.20
2017,04,28,11,22,10.20
2017,04,28,11,23,10.20
2017,04,28,11,24,10.30
2017,04,28,11,25,10.30
2017,04,28,11,26,10.40
2017,04,28,11,27,10.40
2017,04,28,11,28,10.40
2017,04,28,11,29,10.50
2017,04,28,11,30,10.40
2017,04,28,11,31,10.40
2017,04,28,11,32,10.40
2017,04,28,11,33,10.40
2017,04,28,11,34,10.40
2017,04,28,11,35,10.40
2017,04,28,11,36,10.40
2017,04,28,11,37,10.50
2017,04,28,11,38,10.50
2017,04,28,11,39,10.60
2017,04,28,11,40,10.60
2017,04,28,11,41,10.60
2017,04,28,11,42,10.60
2017,04,28,11,43,10.60
2017,04,28,11,44,10.70
2017,04,28,11,45,10.90
2017,04,28,11,46,11.00
2017,04,28,11,47,11.10
2017,04,28,11,48,11.20
2017,04,28,11,49,11.20
2017,04,28,11,50,11.20
2017,04,28,11,51,11.20
2017,04,28,11,52,11.20
2017,04,28,11,53,11.30
2017,04,28,11,54,11.30
2017,04,28,11,55,11.40
2017,04,28,11,56,11.40
2017,04,28,11,57,11.40
2017,04,28,11,58,11.50
2017,04,28,11,59,11.60
2017,04,28,12,00,11.70
2017,04,28,12,01,11.80
2017,04,28,12,02,11.80
2017,04,28,12,03,11.80
2017,04,28,12,04,11.90
2017,04,28,12,05,12.00
2017,04,28,12,06,12.10
2017,04,28,12,07,12.20
2017,04,28,12,08,12.30
2017,04,28,12,09,12.50
2017,04,28,12,10,12.50
2017,04,28,12,11,12.50
2017,04,28,12,12,12.40
2017,04,28,12,13,12.40
2017,04,28,12,14,12.30
2017,04,28,12,15,12.30
2017,04,28,12,16,12.40
2017,04,28,12,17,12.50
2017,04,28,12,18,12.60
2017,04,28,12,19,12.70
2017,04,28,12,20,12.80
2017,04,28,12,21,12.90
2017,04,28,12,22,13.00
2017,04,28,12,23,13.00
2017,04,28,12,24,13.10
2017,04,28,12,25,13.10
2017,04,28,12,26,13.10
2017,04,28,12,27,13.10
2017,04,28,12,28,13.20
2017,04,28,12,29,13.20
2017,04,28,12,30,13.20
2017,04,28,12,31,13.30
2017,04,28,12,32,13.20
2017,04,28,12,33,13.20
2017,04,28,12,34,13.20
2017,04,28,12,35,13.20
2017,04,28,12,36,13.20
2017,04,28,12,37,13.10
2017,04,28,12,38,13.20
2017,04,28,12,39,13.20
2017,04,28,12,40,13.20
2017,04,28,12,41,13.20
2017,04,28,12,42,13.10
2017,04,28,12,43,13.10
2017,04,28,12,44,13.10
2017,04,28,12,45,13.20
2017,04,28,12,46,13.30
2017,04,28,12,47,13.30
2017,04,28,12,48,13.30
2017,04,28,12,49,13.30
2017,04,28,12,50,13.40
2017,04,28,12,51,13.30
2017,04,28,12,52,13.30
2017,04,28,12,53,13.30
2017,04,28,12,54,13.30
2017,04,28,12,55,13.30
2017,04,28,12,56,13.30
2017,04,28,12,57,13.30
2017,04,28,12,58,13.30
2017,04,28,12,59,13.30
2017,04,28,13,00,13.40
2017,04,28,13,01,13.40
2017,04,28,13,02,13.50
2017,04,28,13,03,13.60
2017,04,28,13,04,13.70
2017,04,28,13,05,13.70
2017,04,28,13,06,13.70
2017,04,28,13,07,13.70
2017,04,28,13,08,13.80
2017,04,28,13,09,13.80
2017,04,28,13,10,13.80
2017,04,28,13,11,13.80
2017,04,28,13,12,13.90
2017,04,28,13,13,14.00
2017,04,28,13,14,14.00
2017,04,28,13,15,14.00
2017,04,28,13,16,14.00
2017,04,28,13,17,14.10
2017,04,28,13,18,14.20
2017,04,28,13,19,14.30
2017,04,28,13,20,14.30
2017,04,28,13,21,14.40
2017,04,28,13,22,14.50
2017,04,28,13,23,14.50
2017,04,28,13,24,14.50
2017,04,28,13,25,14.50
2017,04,28,13,26,14.50
2017,04,28,13,27,14.60
2017,04,28,13,28,14.50
2017,04,28,13,29,14.40
2017,04,28,13,30,14.30
2017,04,28,13,31,14.20
2017,04,28,13,32,14.20
2017,04,28,13,33,14.20
2017,04,28,13,34,14.20
2017,04,28,13,35,14.40
2017,04,28,13,36,14.50
2017,04,28,13,37,14.60
2017,04,28,13,38,14.80
2017,04,28,13,39,14.80
2017,04,28,13,40,14.90
2017,04,28,13,41,14.90
2017,04,28,13,42,15.00
2017,04,28,13,43,14.90
2017,04,28,13,44,14.80
2017,04,28,13,45,14.80
2017,04,28,13,46,14.80
2017,04,28,13,47,14.80
2017,04,28,13,48,14.80
2017,04,28,13,49,14.80
2017,04,28,13,50,14.90
2017,04,28,13,51,15.10
2017,04,28,13,52,15.20
2017,04,28,13,53,15.10
2017,04,28,13,54,15.10
2017,04,28,13,55,15.10
2017,04,28,13,56,15.10
2017,04,28,13,57,15.10
2017,04,28,13,58,15.20
2017,04,28,13,59,15.30
2017,04,28,14,00,15.50
2017,04,28,14,01,15.50
2017,04,28,14,02,15.40
2017,04,28,14,03,15.30
2017,04,28,14,04,15.30
2017,04,28,14,05,15.30
2017,04,28,14,06,15.30
2017,04,28,14,07,15.40
2017,04,28,14,08,15.50
2017,04,28,14,09,15.50
2017,04,28,14,10,15.50
2017,04,28,14,11,15.40
2017,04,28,14,12,15.20
2017,04,28,14,13,15.10
2017,04,28,14,14,14.90
2017,04,28,14,15,14.80
2017,04,28,14,16,14.80
2017,04,28,14,17,14.80
2017,04,28,14,18,14.80
2017,04,28,14,19,14.80
2017,04,28,14,20,14.80
2017,04,28,14,21,14.80
2017,04,28,14,22,14.70
2017,04,28,14,23,14.70
2017,04,28,14,24,14.70
2017,04,28,14,25,14.70
2017,04,28,14,26,14.80
2017,04,28,14,27,14.80
2017,04,28,14,28,14.80
2017,04,28,14,29,14.80
2017,04,28,14,30,14.80
2017,04,28,14,31,14.80
2017,04,28,14,32,14.90
2017,04,28,14,33,15.00
2017,04,28,14,34,15.10
2017,04,28,14,35,15.20
2017,04,28,14,36,15.20
2017,04,28,14,37,15.30
2017,04,28,14,38,15.30
2017,04,28,14,39,15.40
2017,04,28,14,40,15.50
2017,04,28,14,41,15.60
2017,04,28,14,42,15.60
2017,04,28,14,43,15.60
2017,04,28,14,44,15.60
2017,04,28,14,45,15.60
2017,04,28,14,46,15.60
2017,04,28,14,47,15.50
2017,04,28,14,48,15.40
2017,04,28,14,49,15.40
2017,04,28,14,50,15.40
2017,04,28,14,51,15.30
2017,04,28,14,52,15.40
2017,04,28,14,53,15.50
2017,04,28,14,54,15.60
2017,04,28,14,55,15.70
2017,04,28,14,56,15.70
2017,04,28,14,57,15.70
2017,04,28,14,58,15.60
2017,04,28,14,59,15.50
2017,04,28,15,00,15.50
2017,04,28,15,01,15.40
2017,04,28,15,02,15.40
2017,04,28,15,03,15.40
2017,04,28,15,04,15.50
2017,04,28,15,05,15.60
2017,04,28,15,06,15.60
2017,04,28,15,07,15.60
2017,04,28,15,08,15.50
2017,04,28,15,09,15.60
2017,04,28,15,10,15.60
2017,04,28,15,11,15.70
2017,04,28,15,12,15.80
2017,04,28,15,13,15.80
2017,04,28,15,14,15.80
2017,04,28,15,15,15.70
2017,04,28,15,16,15.60
2017,04,28,15,17,15.60
2017,04,28,15,18,15.60
2017,04,28,15,19,15.60
2017,04,28,15,20,15.50
2017,04,28,15,21,15.50
2017,04,28,15,22,15.50
2017,04,28,15,23,15.50
2017,04,28,15,24,15.50
2017,04,28,15,25,15.60
2017,04,28,15,26,15.60
2017,04,28,15,27,15.60
2017,04,28,15,28,15.60
2017,04,28,15,29,15.60
2017,04,28,15,30,15.60
2017,04,28,15,31,15.60
2017,04,28,15,32,15.60
2017,04,28,15,33,15.60
2017,04,28,15,34,15.50
2017,04,28,15,35,15.40
2017,04,28,15,36,15.40
2017,04,28,15,37,15.40
2017,04,28,15,38,15.40
2017,04,28,15,39,15.30
2017,04,28,15,40,15.30
2017,04,28,15,41,15.40
2017,04,28,15,42,15.50
2017,04,28,15,43,15.50
2017,04,28,15,44,15.60
2017,04,28,15,45,15.60
2017,04,28,15,46,15.50
2017,04,28,15,47,15.40
2017,04,28,15,48,15.30
2017,04,28,15,49,15.20
2017,04,28,15,50,15.20
2017,04,28,15,51,15.20
2017,04,28,15,52,15.20
2017,04,28,15,53,15.20
2017,04,28,15,54,15.20
2017,04,28,15,55,15.10
2017,04,28,15,56,15.10
2017,04,28,15,57,15.20
2017,04,28,15,58,15.20
2017,04,28,15,59,15.10
2017,04,28,16,00,15.10
2017,04,28,16,01,15.10
2017,04,28,16,02,15.00
2017,04,28,16,03,14.90
2017,04,28,16,04,14.90
2017,04,28,16,05,14.90
2017,04,28,16,06,14.90
2017,04,28,16,07,15.00
2017,04,28,16,08,15.00
2017,04,28,16,09,15.00
2017,04,28,16,10,15.00
2017,04,28,16,11,15.00
2017,04,28,16,12,14.90
2017,04,28,16,13,14.90
2017,04,28,16,14,14.90
2017,04,28,16,15,15.00
2017,04,28,16,16,15.00
2017,04,28,16,17,14.90
2017,04,28,16,18,14.80
2017,04,28,16,19,14.70
2017,04,28,16,20,14.70
2017,04,28,16,21,14.70
2017,04,28,16,22,14.60
2017,04,28,16,23,14.60
2017,04,28,16,24,14.50
2017,04,28,16,25,14.50
2017,04,28,16,26,14.50
2017,04,28,16,27,14.50
2017,04,28,16,28,14.50
2017,04,28,16,29,14.60
2017,04,28,16,30,14.60
2017,04,28,16,31,14.60
2017,04,28,16,32,14.60
2017,04,28,16,33,14.70
2017,04,28,16,34,14.70
2017,04,28,16,35,14.70
2017,04,28,16,36,14.70
2017,04,28,16,37,14.70
2017,04,28,16,38,14.60
2017,04,28,16,39,14.60
2017,04,28,16,40,14.60
2017,04,28,16,41,14.60
2017,04,28,16,42,14.60
2017,04,28,16,43,14.60
2017,04,28,16,44,14.60
2017,04,28,16,45,14.60
2017,04,28,16,46,14.60
2017,04,28,16,47,14.60
2017,04,28,16,48,14.70
2017,04,28,16,49,14.70
2017,04,28,16,50,14.70
2017,04,28,16,51,14.80
2017,04,28,16,52,14.80
2017,04,28,16,53,14.80
2017,04,28,16,54,14.80
2017,04,28,16,55,14.80
2017,04,28,16,56,14.80
2017,04,28,16,57,14.90
2017,04,28,16,58,15.00
2017,04,28,16,59,15.00
2017,04,28,17,00,14.90
2017,04,28,17,01,14.90
2017,04,28,17,02,14.90
2017,04,28,17,03,14.80
2017,04,28,17,04,14.70
2017,04,28,17,05,14.70
2017,04,28,17,06,14.70
2017,04,28,17,07,14.70
2017,04,28,17,08,14.70
2017,04,28,17,09,14.70
2017,04,28,17,10,14.70
2017,04,28,17,11,14.70
2017,04,28,17,12,14.70
2017,04,28,17,13,14.70
2017,04,28,17,14,14.70
2017,04,28,17,15,14.60
2017,04,28,17,16,14.60
2017,04,28,17,17,14.50
2017,04,28,17,18,14.50
2017,04,28,17,19,14.40
2017,04,28,17,20,14.40
2017,04,28,17,21,14.40
2017,04,28,17,22,14.40
2017,04,28,17,23,14.50
2017,04,28,17,24,14.50
2017,04,28,17,25,14.60
2017,04,28,17,26,14.60
2017,04,28,17,27,14.60
2017,04,28,17,28,14.60
2017,04,28,17,29,14.50
2017,04,28,17,30,14.40
2017,04,28,17,31,14.40
2017,04,28,17,32,14.40
2017,04,28,17,33,14.40
2017,04,28,17,34,14.40
2017,04,28,17,35,14.30
2017,04,28,17,36,14.30
2017,04,28,17,37,14.30
2017,04,28,17,38,14.20
2017,04,28,17,39,14.20
2017,04,28,17,40,14.20
2017,04,28,17,41,14.20
2017,04,28,17,42,14.30
2017,04,28,17,43,14.30
2017,04,28,17,44,14.30
2017,04,28,17,45,14.30
2017,04,28,17,46,14.20
2017,04,28,17,47,14.20
2017,04,28,17,48,14.10